Regional Weather Roundup
Issued by NWS Charleston, WV

Home | Current Version | Previous Version | Graphics & Text | Print | Product List | Glossary On
Versions: 1 2 3 4 5 6 7 8 9 10 11 12 13 14 15 16 17 18 19 20 21 22 23 24 25 26 27 28 29 30 31 32 33 34 35 36 37 38 39 40 41 42 43 44 45 46 47 48 49 50
000
ASUS41 KRLX 280110
RWRRLX
West Virginia Regional Weather Roundup
National Weather Service Charleston WV
800 PM EST THU NOV 27 2014

Note: "fair" indicates few or no clouds below 12,000 feet with no
significant weather and/or obstructions to visibility.

WVZ003-280200-
Northern Panhandle of West Virginia

CITY           SKY/WX    TMP DP  RH WIND       PRES   REMARKS
WHEELING       LGT SNOW  28  24  85 W8        30.22R FOG
$$

WVZ009-280200-
Northwest West Virginia

CITY           SKY/WX    TMP DP  RH WIND       PRES   REMARKS
PARKERSBURG    CLOUDY    30  23  75 W3        30.31R
$$

WVZ006-280200-
Western West Virginia

CITY           SKY/WX    TMP DP  RH WIND       PRES   REMARKS
HUNTINGTON     FLURRIES  31  24  75 W12       30.34R
$$

WVZ015-280200-
West Central West Virginia

CITY           SKY/WX    TMP DP  RH WIND       PRES   REMARKS
CHARLESTON     FLURRIES  31  25  78 W7G17     30.31R
$$

WVZ022-031-280200-
North Central West Virginia

CITY           SKY/WX    TMP DP  RH WIND       PRES   REMARKS
CLARKSBURG     FLURRIES  30  25  81 W10       30.24R
MORGANTOWN     FLURRIES  30  22  72 W7        30.22R
$$

WVZ025-035-042-045-280200-
Southern West Virginia

CITY           SKY/WX    TMP DP  RH WIND       PRES   REMARKS
BECKLEY        FLURRIES  25  18  74 NW13      30.22R
LOGAN          LGT SNOW  28  27  93 W5        30.29R
BLUEFIELD      FLURRIES  26  19  74 W13G23    30.21R
LEWISBURG      FLURRIES  29  21  70 W7        30.20R
$$

WVZ047-280200-
Northern Mountains of West Virginia

CITY           SKY/WX    TMP DP  RH WIND       PRES   REMARKS
ELKINS         LGT SNOW  28  24  85 NW13G22   30.19R FOG
$$

WVZ052-280200-
Eastern Panhandle of West Virginia

CITY           SKY/WX    TMP DP  RH WIND       PRES   REMARKS
MARTINSBURG    CLOUDY    38  26  62 W10       30.14R
PETERSBURG     FLURRIES  34  24  66 W9        30.18R
$$



USA.gov is the U.S. government's official web portal to all federal, state and local government web resources and services.